Location: Colonia Mina de C?rbuni
(46.1667°N, 22.7167°E)
Time: 22:43:01
(UTC+00:00)

Tiros 1 - Pass Details

Date: 23 April 2024
Orbit: 624 x 657 km, 48.4° (Epoch: 20 May)

Event Time Altitude Azimuth Distance (km) Brightness Sun altitude
Rises 20:39:09 0° 214° (SW) 2,938 - -26.1°
Reaches altitude 10° 20:41:42 10° 204° (SSW) 2,025 - -26.3°
Maximum altitude 20:45:45 30° 143° (SE) 1,141 - -26.7°
Drops below altitude 10° 20:49:47 10° 83° (E) 2,015 - -27.0°
Sets 20:52:19 0° 73° (ENE) 2,921 - -27.2°
